Cotulla, TX

8:39 PM CDT on August 27, 2016 (GMT -0500)
Cotulla-La Salle County

Weather History for KCOT - October, 2012

Change the Weather History Date:

Sunday, October 7, 2012

  Actual Average Record
Temperature  
Mean Temperature 60 °F -  
Max Temperature 64 °F 83 °F 98 °F (2011)
Min Temperature 57 °F 63 °F 48 °F (2000)
Degree Days  
Heating Degree Days 4    
Growing Degree Days 10 (Base 50)    
Moisture  
Dew Point 50 °F    
Average Humidity 72    
Maximum Humidity 78    
Minimum Humidity 67    
Precipitation  
Precipitation 0.00 in - - ()
Sea Level Pressure  
Sea Level Pressure 30.14 in    
Wind  
Wind Speed 11 mph (NNE)    
Max Wind Speed 16 mph    
Max Gust Speed 22 mph    
Visibility 10 miles    
Events      
Averages and records for this station are not official NWS values.
T = Trace of Precipitation, MM = Missing Value Source: NWS Daily Summary

Daily Weather History Graph

Daily Weather History Graph

Search for Another Location

Airport or City:

Trip Planner

Search our weather history database for the weather conditions in past years. The results will help you decide how hot, cold, wet, or windy it might be!

Date:

Astronomy

Oct. 07, 2012 Rise Set
Actual Time 7:33 AM CDT 7:15 PM CDT
Civil Twilight 7:09 AM CDT 7:38 PM CDT
Nautical Twilight 6:42 AM CDT 8:06 PM CDT
Astronomical Twilight 6:15 AM CDT 8:33 PM CDT
Moon No Moon Rise 1:52 PM CDT (10/7)
Length of Visible Light 12h 29m
Length of Day
11h 41m
Waning Gibbous, 56% of the Moon is Illuminated
Oct 7
Waning Gibbous
Oct 8
Last Quarter
Oct 15
New
Oct 21
First Quarter
Oct 29
Full

Hourly Weather History & Observations

Time (CDT) Temp. Dew Point Humidity Pressure Visibility Wind Dir Wind Speed Gust Speed Precip Events Conditions
12:53 AM 64.0 °F 57.0 °F 78% 30.02 in 10.0 mi ENE 12.7 mph 20.7 mph N/A   Clear
1:53 AM 62.6 °F 55.4 °F 77% 30.06 in 10.0 mi ENE 12.7 mph - N/A   Mostly Cloudy
2:53 AM 62.1 °F 54.0 °F 75% 30.07 in 10.0 mi NE 11.5 mph 19.6 mph N/A   Overcast
3:53 AM 61.0 °F 53.1 °F 75% 30.08 in 10.0 mi NE 11.5 mph 17.3 mph N/A   Overcast
4:53 AM 60.1 °F 52.0 °F 75% 30.08 in 10.0 mi NE 16.1 mph 21.9 mph N/A   Overcast
5:53 AM 59.0 °F 51.1 °F 75% 30.09 in 10.0 mi NE 10.4 mph - N/A   Overcast
6:53 AM 57.9 °F 48.9 °F 72% 30.11 in 10.0 mi NE 16.1 mph 21.9 mph N/A   Overcast
7:53 AM 57.0 °F 48.0 °F 72% 30.14 in 10.0 mi NE 9.2 mph 20.7 mph N/A   Overcast
8:53 AM 57.0 °F 48.0 °F 72% 30.17 in 10.0 mi NNE 11.5 mph 17.3 mph N/A   Overcast
9:53 AM 57.9 °F 48.0 °F 70% 30.18 in 10.0 mi NNE 10.4 mph 17.3 mph N/A   Overcast
10:53 AM 59.0 °F 48.0 °F 67% 30.19 in 10.0 mi North 10.4 mph - N/A   Overcast
11:53 AM 59.0 °F 48.2 °F 67% 30.20 in 10.0 mi North 10.4 mph - N/A   Overcast
12:53 PM 59.0 °F 48.9 °F 69% 30.18 in 10.0 mi North 6.9 mph - N/A   Overcast
1:53 PM 59.0 °F 48.0 °F 67% 30.17 in 10.0 mi North 6.9 mph - N/A   Overcast
2:53 PM 57.9 °F 48.9 °F 72% 30.15 in 9.0 mi North 9.2 mph - N/A   Overcast
3:53 PM 57.9 °F 48.9 °F 72% 30.14 in 10.0 mi NNE 4.6 mph - N/A   Overcast
4:53 PM 59.0 °F 48.9 °F 69% 30.12 in 10.0 mi NNE 5.8 mph - N/A   Overcast
5:53 PM 59.0 °F 48.9 °F 69% 30.12 in 9.0 mi NNW 8.1 mph - N/A   Overcast
6:53 PM 57.9 °F 50.0 °F 75% 30.12 in 10.0 mi North 8.1 mph - N/A   Overcast
7:53 PM 57.9 °F 50.0 °F 75% 30.14 in 10.0 mi North 8.1 mph - N/A   Overcast
8:39 PM 57.2 °F 50.0 °F 77% 30.17 in 10.0 mi NNW 6.9 mph - N/A   Overcast
8:53 PM 57.9 °F 50.0 °F 75% 30.17 in 10.0 mi NNW 6.9 mph - N/A   Overcast
9:53 PM 57.9 °F 50.0 °F 75% 30.17 in 10.0 mi North 4.6 mph - N/A   Overcast
10:53 PM 59.0 °F 50.0 °F 72% 30.19 in 10.0 mi North 5.8 mph - N/A   Overcast
11:53 PM 57.9 °F 48.0 °F 70% 30.18 in 10.0 mi NNE 9.2 mph - N/A   Overcast